User: anonymous   Login
Location: Caltech
(34.1382°N, 118.1253°W)
Time: 03:06:47
(UTC-07:00)
Language:

Iridium 91 - Orbit

View from above orbital plane
View from above orbital plane
View from above satellite
View from above satellite

Ground track
Ground track

The orbit data is extracted from the following two-line orbital elements,

1 27372U 02005A   14295.51363804  .00000515  00000-0  17672-3 0  5396
2 27372 086.3969 332.6088 0002973 128.7595 348.0934 14.34219578672787
Epoch (UTC): 22 October 2014 12:19:38
Eccentricity: 0.0002973
inclination: 86.3969°
perigee height: 775 km
apogee height: 780 km
right ascension of ascending node: 332.6088°
argument of perigee: 128.7595°
revolutions per day: 14.34219578
mean anomaly at epoch: 348.0934°
orbit number at epoch: 67278

The dashed part of the orbit path shows where the satellite is in the earth's shadow,  

DLR